Sturgeon Bay, WI

9:25 PM CDT on June 24, 2018 (GMT -0500)
Door County Cherryland

Weather History for KSUE - September, 2017

Change the Weather History Date:

Wednesday, September 13, 2017

  Actual Average Record
Temperature  
Mean Temperature 63 °F -  
Max Temperature 75 °F 70 °F 85 °F (1930)
Min Temperature 51 °F 52 °F 36 °F (1943)
Degree Days  
Heating Degree Days 2    
Growing Degree Days 13 (Base 50)    
Moisture  
Dew Point 58 °F    
Average Humidity 92    
Maximum Humidity 100    
Minimum Humidity 64    
Precipitation  
Precipitation 0.00 in - - ()
Sea Level Pressure  
Sea Level Pressure 29.86 in    
Wind  
Wind Speed 1 mph (SSE)    
Max Wind Speed 8 mph    
Max Gust Speed -    
Visibility 4 miles    
Events Fog    
Averages and records for this station are not official NWS values.
T = Trace of Precipitation, MM = Missing Value Source: NWS Daily Summary

Daily Weather History Graph

Daily Weather History Graph

Search for Another Location

Airport or City:

Astronomy

Sep. 13, 2017 Rise Set
Actual Time 6:26 AM CDT 7:03 PM CDT
Civil Twilight 5:56 AM CDT 7:33 PM CDT
Nautical Twilight 5:21 AM CDT 8:07 PM CDT
Astronomical Twilight 4:45 AM CDT 8:44 PM CDT
Moon No Moon Rise 2:30 PM CDT (9/13)
Length of Visible Light 13h 36m
Length of Day
12h 37m
Last Quarter, 45% of the Moon is Illuminated
Sep 13
Last Quarter
Sep 20
New
Sep 27
First Quarter
Oct 5
Full
Oct 12
Last Quarter

Hourly Weather History & Observations

Time (CDT) Temp. Dew Point Humidity Pressure Visibility Wind Dir Wind Speed Gust Speed Precip Events Conditions
12:09 AM 57.2 °F 57.2 °F 100% 29.88 in 1.8 mi Calm Calm - N/A   Clear
12:17 AM 57.2 °F 57.2 °F 100% 29.88 in 0.8 mi Calm Calm - N/A   Clear
12:27 AM 57.2 °F 57.2 °F 100% 29.88 in 1.2 mi Calm Calm - N/A   Clear
12:35 AM 57.2 °F 55.4 °F 94% 29.88 in 0.8 mi Calm Calm - N/A   Clear
12:47 AM 55.4 °F 55.4 °F 100% 29.88 in 0.5 mi SSE 3.5 mph - N/A Fog Fog
12:56 AM 55.9 °F 55.9 °F 100% 29.92 in 0.8 mi South 3.5 mph - N/A   Clear
1:01 AM 57.2 °F 57.2 °F 100% 29.87 in 1.2 mi South 3.5 mph - N/A   Clear
1:04 AM 57.2 °F 57.2 °F 100% 29.87 in 4.0 mi South 3.5 mph - N/A   Clear
1:14 AM 57.2 °F 57.2 °F 100% 29.87 in 1.2 mi Calm Calm - N/A   Clear
1:16 AM 57.2 °F 57.2 °F 100% 29.87 in 0.8 mi Calm Calm - N/A   Clear
1:21 AM 57.2 °F 57.2 °F 100% 29.87 in 0.2 mi Calm Calm - N/A Fog Fog
1:56 AM 55.0 °F 55.0 °F 100% 29.91 in 0.2 mi Calm Calm - N/A Fog Fog
2:04 AM 53.6 °F 53.6 °F 100% 29.85 in 0.5 mi Calm Calm - N/A Fog Fog
2:25 AM 53.6 °F 53.6 °F 100% 29.85 in 0.2 mi Calm Calm - N/A Fog Fog
2:56 AM 54.0 °F 54.0 °F 100% 29.90 in 0.2 mi Calm Calm - N/A Fog Fog
3:56 AM 53.1 °F 53.1 °F 100% 29.90 in 0.2 mi Calm Calm - N/A Fog Fog
4:56 AM 54.0 °F 54.0 °F 100% 29.90 in 0.5 mi Calm Calm - N/A Fog Fog
5:15 AM 51.8 °F 51.8 °F 100% 29.85 in 0.2 mi Calm Calm - N/A Fog Fog
5:56 AM 53.1 °F 53.1 °F 100% 29.91 in 0.5 mi Calm Calm - N/A Fog Fog
6:28 AM 53.6 °F 53.6 °F 100% - 0.2 mi Calm Calm - N/A Fog Fog
6:56 AM 54.0 °F 54.0 °F 100% 29.91 in 0.2 mi Calm Calm - N/A Fog Fog
7:10 AM 53.6 °F 53.6 °F 100% 29.85 in 0.8 mi Calm Calm - N/A   Mist
7:12 AM 53.6 °F 53.6 °F 100% 29.85 in 4.0 mi Calm Calm - N/A   Scattered Clouds
7:51 AM 57.2 °F 57.2 °F 100% 29.85 in 1.0 mi Calm Calm - N/A   Clear
7:53 AM 57.2 °F 57.2 °F 100% 29.85 in 0.5 mi Calm Calm - N/A Fog Fog
7:56 AM 57.9 °F 57.9 °F 100% 29.90 in 0.2 mi Calm Calm - N/A Fog Fog
8:09 AM 60.8 °F 60.8 °F 100% 29.84 in 0.8 mi Calm Calm - N/A   Clear
8:11 AM 60.8 °F 60.8 °F 100% 29.84 in 1.5 mi Calm Calm - N/A   Clear
8:19 AM 60.8 °F 60.8 °F 100% 29.84 in 3.0 mi Calm Calm - N/A   Clear
8:56 AM 63.0 °F 62.1 °F 97% 29.90 in 7.0 mi Calm Calm - N/A   Clear
9:56 AM 64.9 °F 62.1 °F 90% 29.89 in 10.0 mi Calm Calm - N/A   Clear
10:56 AM 70.0 °F 63.0 °F 78% 29.87 in 10.0 mi West 3.5 mph - N/A   Clear
11:56 AM 73.0 °F 63.0 °F 71% 29.86 in 9.0 mi North 5.8 mph - N/A   Clear
12:56 PM 75.0 °F 64.0 °F 69% 29.83 in 9.0 mi Variable 3.5 mph - N/A   Clear
1:56 PM 75.0 °F 64.0 °F 69% 29.82 in 9.0 mi East 6.9 mph - N/A   Partly Cloudy
2:56 PM 73.9 °F 63.0 °F 68% 29.81 in 10.0 mi ENE 6.9 mph - N/A   Clear
3:56 PM 75.0 °F 62.1 °F 64% 29.81 in 10.0 mi Variable 3.5 mph - N/A   Clear
4:56 PM 73.9 °F 62.1 °F 66% 29.81 in 10.0 mi SE 8.1 mph - N/A   Clear
5:56 PM 70.0 °F 61.0 °F 73% 29.82 in 10.0 mi SE 5.8 mph - N/A   Clear
6:56 PM 66.9 °F 61.0 °F 81% 29.83 in 10.0 mi SE 3.5 mph - N/A   Clear
7:56 PM 63.0 °F 60.1 °F 90% 29.83 in 10.0 mi South 4.6 mph - N/A   Clear
8:56 PM 63.0 °F 57.0 °F 81% 29.83 in 10.0 mi South 5.8 mph - N/A   Clear
9:56 PM 62.1 °F 57.0 °F 84% 29.84 in 10.0 mi SE 4.6 mph - N/A   Clear
10:56 PM 60.1 °F 55.0 °F 83% 29.85 in 10.0 mi South 4.6 mph - N/A   Clear
11:56 PM 59.0 °F 53.1 °F 81% 29.84 in 10.0 mi South 5.8 mph - N/A   Clear